Weather History for Salem, OR

Change the Weather History Date:

Monday, March 19, 2012

  Actual Average Record
Temperature  
Mean Temperature 39 °F 47 °F  
Max Temperature 44 °F 57 °F 72 °F (1978)
Min Temperature 33 °F 38 °F 22 °F (1965)
Degree Days  
Heating Degree Days 26 18  
Month to date heating degree days 372 360  
Since 1 July heating degree days 3490 3600  
Cooling Degree Days 0 0  
Month to date cooling degree days 0 0  
Year to date cooling degree days 0 0  
Moisture  
Dew Point 34 °F    
Average Humidity 80    
Maximum Humidity 89    
Minimum Humidity 70    
Precipitation  
Precipitation 0.07 in 0.13 in 0.88 in (1922)
Month to date precipitation 5.14 2.57  
Year to date precipitation 19.60 13.09  
Snow  
Snow 0.00 in - - ()
Month to date snowfall 0.0  
Snow Depth 0.00 in    
Sea Level Pressure  
Sea Level Pressure 29.88 in    
Wind  
Wind Speed 10 mph (SSE)    
Max Wind Speed 22 mph    
Max Gust Speed 26 mph    
Visibility 9 miles    
Events Rain , Snow    
T = Trace of Precipitation, MM = Missing Value Source: NWS Daily Summary

Daily Weather History Graph

Daily Weather History Graph

Search for Another Location

Airport:

Trip Planner

Search our weather history database for the weather conditions in past years. The results will help you decide how hot, cold, wet, or windy it might be!

Date:

Astronomy

Mar. 19, 2012 Rise Set
Actual Time 7:15 AM PDT 7:23 PM PDT
Civil Twilight 6:46 AM PDT 7:53 PM PDT
Nautical Twilight 6:12 AM PDT 8:27 PM PDT
Astronomical Twilight 5:37 AM PDT 9:02 PM PDT
Moon 5:36 AM PDT (3/19) 4:52 PM PDT (3/19)
Length of Visible Light 13h 06m
Length of Day
12h 08m
Waning Crescent, 8% of the Moon is Illuminated
Mar 19
Waning Crescent
Mar 22
New
Mar 30
First Quarter
Apr 6
Full
Apr 13
Last Quarter

Hourly Weather History & Observations

Time (PDT) Temp. Windchill Dew Point Humidity Pressure Visibility Wind Dir Wind Speed Gust Speed Precip Events Conditions
1:56 AM 34.0 °F 27.2 °F 28.9 °F 82% 29.91 in 10.0 mi SSE 8.1 mph - N/A   Overcast
2:56 AM 34.0 °F 27.2 °F 28.9 °F 82% 29.91 in 10.0 mi SSE 8.1 mph - N/A   Overcast
3:56 AM 34.0 °F 28.0 °F 28.9 °F 82% 29.90 in 10.0 mi SSE 6.9 mph - N/A   Overcast
4:56 AM 34.0 °F 29.8 °F 30.0 °F 85% 29.90 in 10.0 mi SE 4.6 mph - N/A   Overcast
5:56 AM 36.0 °F - 30.0 °F 79% 29.89 in 10.0 mi Calm Calm - 0.00 in   Overcast
6:56 AM 34.0 °F 28.8 °F 30.9 °F 89% 29.91 in 8.0 mi South 5.8 mph - 0.01 in Snow Light Snow
7:16 AM 33.8 °F 27.7 °F 30.2 °F 87% 29.91 in 5.0 mi South 6.9 mph - 0.00 in Snow Light Snow
8:20 AM 35.6 °F 30.7 °F 32.0 °F 87% 29.92 in 6.0 mi SSE 5.8 mph - 0.01 in   Overcast
8:43 AM 35.6 °F 28.0 °F 32.0 °F 87% 29.92 in 6.0 mi SSE 10.4 mph - 0.01 in   Overcast
8:56 AM 35.1 °F 26.4 °F 32.0 °F 89% 29.92 in 6.0 mi SSE 12.7 mph - 0.01 in Snow Light Snow
9:56 AM 37.0 °F 28.5 °F 34.0 °F 89% 29.93 in 10.0 mi SSE 13.8 mph - 0.00 in   Overcast
10:56 AM 41.0 °F 33.9 °F 34.0 °F 76% 29.94 in 10.0 mi SSE 12.7 mph - N/A   Scattered Clouds
11:56 AM 42.1 °F 34.2 °F 34.0 °F 73% 29.93 in 10.0 mi South 16.1 mph 23.0 mph N/A   Overcast
12:56 PM 43.0 °F 35.4 °F 34.0 °F 71% 29.92 in 10.0 mi SSE 16.1 mph - N/A   Overcast
1:56 PM 42.1 °F 34.2 °F 35.1 °F 76% 29.92 in 10.0 mi South 16.1 mph 26.5 mph 0.00 in Rain Light Rain
2:56 PM 41.0 °F 33.9 °F 37.0 °F 86% 29.90 in 10.0 mi South 12.7 mph - 0.01 in Rain Light Rain
3:56 PM 42.1 °F 35.2 °F 36.0 °F 79% 29.89 in 10.0 mi South 12.7 mph 19.6 mph 0.00 in Rain Light Rain
4:56 PM 42.1 °F 35.2 °F 37.9 °F 85% 29.87 in 10.0 mi SE 12.7 mph - 0.01 in Rain Light Rain
5:56 PM 43.0 °F 37.7 °F 37.9 °F 82% 29.85 in 10.0 mi SSE 9.2 mph - 0.00 in   Overcast
6:56 PM 44.1 °F 40.1 °F 37.0 °F 76% 29.83 in 10.0 mi SSE 6.9 mph - N/A   Overcast
7:56 PM 44.1 °F 40.1 °F 37.0 °F 76% 29.82 in 10.0 mi SSE 6.9 mph - 0.00 in   Overcast
8:56 PM 44.1 °F 38.6 °F 36.0 °F 73% 29.80 in 10.0 mi SSE 10.4 mph - 0.00 in   Overcast
9:56 PM 44.1 °F 37.7 °F 37.0 °F 76% 29.79 in 10.0 mi SSE 12.7 mph - 0.00 in Rain Light Rain
10:36 PM 44.6 °F 38.8 °F 37.4 °F 76% 29.77 in 10.0 mi SSE 11.5 mph - 0.00 in Rain Light Rain
10:56 PM 44.1 °F 37.7 °F 37.9 °F 79% 29.76 in 10.0 mi SSE 12.7 mph - 0.00 in Rain Light Rain
11:56 PM 43.0 °F 36.8 °F 39.0 °F 86% 29.75 in 10.0 mi SSE 11.5 mph - 0.01 in Rain Light Rain